Location: S�deilles
(46.7500°N, 6.9329°E)
Time: 21:26:26
(UTC+00:00)

CZ-4B R/B - Pass Details

Date: 08 March 2021
Orbit: 388 x 454 km, 97.6° (Epoch: 21 April)

Event Time Altitude Azimuth Distance (km) Brightness Sun altitude
Rises 18:04:38 0° 9° (N) 2,304 4.9 -7.1°
Reaches altitude 10° 18:06:37 10° 5° (N) 1,448 3.9 -7.4°
Maximum altitude 18:09:38 56° 286° (WNW) 486 2.0 -7.9°
Drops below altitude 10° 18:12:42 10° 207° (SSW) 1,462 4.3 -8.4°
Sets 18:14:42 0° 203° (SSW) 2,329 5.3 -8.8°
